�������l�o���
Date,Time,MP-1(��Sv/h),MP-2(��Sv/h),MP-3(��Sv/h),MP-4(��Sv/h),MP-5(��Sv/h),MP-6(��Sv/h),MP-7(��Sv/h),MP-8(��Sv/h),����,����(m/s),���J
2022/08/27,00:00,0.612,0.866,0.546,1.059,0.755,0.344,0.603,0.563,�k�k��,2.0,��
2022/08/27,00:10,0.612,0.867,0.545,1.055,0.756,0.345,0.603,0.564,�k,2.0,��
2022/08/27,00:20,0.611,0.868,0.543,1.053,0.757,0.345,0.604,0.565,�k�k��,1.7,��
2022/08/27,00:30,0.610,0.867,0.543,1.057,0.753,0.343,0.603,0.564,�k,1.5,��
2022/08/27,00:40,0.610,0.869,0.545,1.057,0.755,0.344,0.603,0.565,�k�k��,3.0,��
2022/08/27,00:50,0.611,0.867,0.544,1.053,0.758,0.345,0.601,0.562,�k�k��,2.6,��
2022/08/27,01:00,0.612,0.869,0.545,1.056,0.754,0.343,0.604,0.564,�k,2.9,��
2022/08/27,01:10,0.612,0.869,0.544,1.057,0.754,0.344,0.605,0.565,�k,2.8,��
2022/08/27,01:20,0.614,0.867,0.542,1.057,0.755,0.344,0.604,0.564,�k�k��,3.7,�L
2022/08/27,01:30,0.612,0.868,0.544,1.057,0.759,0.345,0.602,0.563,�k�k��,3.6,�L
2022/08/27,01:40,0.613,0.868,0.544,1.055,0.753,0.343,0.603,0.564,�k�k��,3.0,�L
2022/08/27,01:50,0.613,0.868,0.546,1.058,0.756,0.344,0.604,0.563,�k,2.9,�L
2022/08/27,02:00,0.610,0.869,0.544,1.056,0.757,0.345,0.605,0.563,�k,3.5,�L
2022/08/27,02:10,0.613,0.870,0.544,1.056,0.755,0.345,0.602,0.564,�k,3.8,�L
2022/08/27,02:20,0.612,0.867,0.546,1.057,0.757,0.344,0.602,0.565,�k,3.5,��
2022/08/27,02:30,0.612,0.869,0.546,1.056,0.756,0.345,0.604,0.564,�k�k��,3.9,�L
2022/08/27,02:40,0.612,0.868,0.543,1.058,0.756,0.344,0.605,0.563,�k�k��,3.9,�L
2022/08/27,02:50,0.613,0.865,0.545,1.057,0.755,0.345,0.603,0.565,�k�k��,4.8,��
2022/08/27,03:00,0.611,0.865,0.545,1.057,0.756,0.345,0.604,0.564,�k�k��,5.1,��
2022/08/27,03:10,0.613,0.864,0.545,1.057,0.755,0.344,0.602,0.563,�k�k��,4.9,��
2022/08/27,03:20,0.611,0.865,0.544,1.058,0.756,0.346,0.602,0.565,�k,3.9,�L
2022/08/27,03:30,0.610,0.862,0.542,1.054,0.751,0.347,0.598,0.559,���k��,4.0,�L
2022/08/27,03:40,0.609,0.854,0.539,1.051,0.746,0.345,0.598,0.559,�k�k��,3.7,�L
2022/08/27,03:50,0.609,0.853,0.539,1.048,0.747,0.345,0.597,0.560,�k�k��,3.7,�L
2022/08/27,04:00,0.607,0.851,0.538,1.048,0.746,0.343,0.597,0.558,�k�k��,3.5,��
2022/08/27,04:10,0.605,0.852,0.538,1.048,0.746,0.343,0.597,0.558,�k�k��,3.3,��
2022/08/27,04:20,0.603,0.852,0.539,1.047,0.744,0.343,0.597,0.560,�k�k��,3.8,��
2022/08/27,04:30,0.604,0.849,0.538,1.047,0.743,0.342,0.597,0.558,�k�k��,4.2,��
2022/08/27,04:40,0.605,0.851,0.534,1.048,0.743,0.342,0.596,0.559,�k�k��,2.2,��
2022/08/27,04:50,0.605,0.850,0.536,1.046,0.742,0.341,0.596,0.559,�k�k��,3.3,��
2022/08/27,05:00,0.603,0.849,0.536,1.043,0.742,0.341,0.595,0.558,�k�k��,3.8,��
2022/08/27,05:10,0.604,0.851,0.536,1.047,0.742,0.340,0.597,0.559,�k�k��,4.7,��
2022/08/27,05:20,0.604,0.849,0.535,1.043,0.741,0.342,0.595,0.557,�k�k��,3.8,��
2022/08/27,05:30,0.603,0.849,0.536,1.045,0.743,0.342,0.596,0.558,�k�k��,4.1,��
2022/08/27,05:40,0.604,0.849,0.536,1.044,0.742,0.340,0.595,0.559,�k�k��,3.7,�L
2022/08/27,05:50,0.604,0.849,0.536,1.046,0.742,0.340,0.596,0.557,�k,2.8,�L
2022/08/27,06:00,0.602,0.849,0.534,1.044,0.743,0.341,0.594,0.559,�k,2.8,�L
2022/08/27,06:10,0.602,0.849,0.535,1.047,0.742,0.342,0.596,0.557,�k,2.6,��
2022/08/27,06:20,0.602,0.849,0.535,1.045,0.741,0.342,0.597,0.560,�k�k��,2.9,��
2022/08/27,06:30,0.603,0.849,0.535,1.044,0.741,0.343,0.596,0.556,�k�k��,3.0,�L
2022/08/27,06:40,0.602,0.848,0.535,1.044,0.743,0.342,0.597,0.557,�k�k��,2.2,��
2022/08/27,06:50,0.603,0.851,0.533,1.044,0.741,0.341,0.597,0.557,�k�k��,1.4,��
2022/08/27,07:00,0.604,0.848,0.536,1.043,0.742,0.342,0.597,0.558,�k�k��,1.5,��
2022/08/27,07:10,0.603,0.850,0.534,1.047,0.742,0.342,0.598,0.558,�k�k��,2.2,��
2022/08/27,07:20,0.604,0.851,0.534,1.044,0.743,0.341,0.598,0.557,�k�k��,2.3,��
2022/08/27,07:30,0.602,0.850,0.535,1.044,0.743,0.341,0.598,0.558,�k�k��,2.3,�L
2022/08/27,07:40,0.602,0.850,0.534,1.045,0.743,0.342,0.596,0.557,�k�k��,2.0,�L
2022/08/27,07:50,0.604,0.850,0.534,1.044,0.743,0.342,0.597,0.557,�k��,2.3,�L
2022/08/27,08:00,0.602,0.847,0.535,1.046,0.742,0.342,0.597,0.557,�k�k��,2.3,�L
2022/08/27,08:10,0.602,0.848,0.535,1.045,0.742,0.342,0.598,0.558,�k�k��,2.0,�L
2022/08/27,08:20,0.599,0.838,0.530,1.036,0.732,0.340,0.593,0.551,��쐼,4.1,�L
2022/08/27,08:30,0.592,0.826,0.526,1.021,0.723,0.338,0.589,0.554,�k�k��,1.9,�L
2022/08/27,08:40,0.592,0.828,0.528,1.024,0.726,0.338,0.588,0.554,�k,2.2,��
2022/08/27,08:50,0.593,0.830,0.527,1.022,0.727,0.338,0.590,0.551,�k,2.3,�L
2022/08/27,09:00,0.593,0.830,0.526,1.022,0.725,0.338,0.590,0.553,�k,2.3,��
2022/08/27,09:10,0.592,0.830,0.527,1.024,0.724,0.337,0.590,0.554,�k,2.3,��
2022/08/27,09:20,0.593,0.832,0.527,1.025,0.726,0.338,0.592,0.552,�k�k��,2.6,��
2022/08/27,09:30,0.593,0.831,0.526,1.022,0.725,0.337,0.590,0.553,�k,1.4,��
2022/08/27,09:40,0.592,0.833,0.525,1.023,0.726,0.338,0.590,0.553,�k�k��,1.4,��
2022/08/27,09:50,0.593,0.831,0.527,1.022,0.726,0.338,0.591,0.552,�k�k��,1.5,��
2022/08/27,10:00,0.592,0.831,0.527,1.022,0.726,0.337,0.592,0.552,�k�k��,1.4,��
2022/08/27,10:10,0.594,0.829,0.526,1.022,0.725,0.338,0.591,0.551,�k�k��,1.7,�L
2022/08/27,10:20,0.593,0.830,0.525,1.021,0.726,0.338,0.591,0.553,�k�k��,1.2,�L
2022/08/27,10:30,0.593,0.832,0.523,1.022,0.724,0.338,0.593,0.554,�k�k��,1.2,�L
2022/08/27,10:40,0.595,0.832,0.526,1.024,0.725,0.338,0.591,0.554,�k�k��,1.7,��
2022/08/27,10:50,0.595,0.831,0.525,1.023,0.726,0.337,0.592,0.552,�k�k��,1.4,��
2022/08/27,11:00,0.594,0.833,0.527,1.023,0.727,0.338,0.593,0.552,�k��,1.7,��
2022/08/27,11:10,0.593,0.834,0.526,1.024,0.726,0.338,0.592,0.553,�k�k��,1.4,��
2022/08/27,11:20,0.592,0.831,0.527,1.024,0.728,0.339,0.592,0.553,���k��,1.5,��
2022/08/27,11:30,0.593,0.832,0.528,1.024,0.730,0.336,0.592,0.553,���k��,1.7,��
2022/08/27,11:40,0.594,0.833,0.526,1.022,0.729,0.338,0.593,0.552,�k��,1.2,��
2022/08/27,11:50,0.592,0.832,0.528,1.024,0.729,0.338,0.594,0.553,�k�k��,1.2,��
2022/08/27,12:00,0.592,0.834,0.528,1.023,0.729,0.337,0.593,0.552,�k��,1.4,��
2022/08/27,12:10,0.594,0.835,0.527,1.026,0.728,0.338,0.593,0.553,�k,1.2,��
2022/08/27,12:20,0.593,0.833,0.528,1.021,0.730,0.338,0.592,0.554,�k�k��,1.2,��
2022/08/27,12:30,0.594,0.833,0.527,1.023,0.729,0.338,0.594,0.554,�k��,0.9,��
2022/08/27,12:40,0.595,0.834,0.527,1.025,0.729,0.339,0.593,0.554,�k�k��,1.7,��
2022/08/27,12:50,0.595,0.834,0.526,1.021,0.728,0.339,0.594,0.554,�k��,2.0,��
2022/08/27,13:00,0.595,0.836,0.529,1.022,0.730,0.337,0.593,0.555,���k��,2.3,��
2022/08/27,13:10,0.596,0.836,0.527,1.021,0.728,0.339,0.593,0.554,�k��,2.5,��
2022/08/27,13:20,0.593,0.836,0.528,1.021,0.731,0.339,0.595,0.553,���k��,2.2,��
2022/08/27,13:30,0.592,0.835,0.527,1.022,0.730,0.338,0.593,0.555,�k��,2.6,��
2022/08/27,13:40,0.592,0.837,0.529,1.022,0.730,0.338,0.595,0.554,���k��,2.2,��
2022/08/27,13:50,0.592,0.837,0.529,1.024,0.732,0.339,0.593,0.554,��,1.7,��
2022/08/27,14:00,0.593,0.838,0.529,1.023,0.731,0.340,0.594,0.553,��,2.0,��
2022/08/27,14:10,0.592,0.837,0.528,1.022,0.730,0.338,0.595,0.554,��,2.3,��
2022/08/27,14:20,0.593,0.840,0.529,1.022,0.732,0.339,0.595,0.554,��,1.7,��
2022/08/27,14:30,0.592,0.837,0.529,1.024,0.731,0.339,0.595,0.556,�k��,1.7,��
2022/08/27,14:40,0.592,0.839,0.530,1.026,0.730,0.338,0.595,0.554,���k��,1.7,��
2022/08/27,14:50,0.593,0.838,0.530,1.023,0.731,0.340,0.596,0.554,��,2.0,��
2022/08/27,15:00,0.593,0.838,0.530,1.024,0.732,0.340,0.596,0.555,��,2.0,��
2022/08/27,15:10,0.593,0.840,0.529,1.024,0.731,0.339,0.593,0.554,��,1.5,��
2022/08/27,15:20,0.594,0.837,0.530,1.024,0.733,0.339,0.595,0.554,���k��,1.5,��
2022/08/27,15:30,0.595,0.839,0.529,1.024,0.733,0.339,0.595,0.556,��,2.3,��
2022/08/27,15:40,0.596,0.840,0.531,1.025,0.733,0.339,0.595,0.554,��,1.4,��
2022/08/27,15:50,0.596,0.840,0.531,1.026,0.734,0.338,0.596,0.554,��,1.1,��
2022/08/27,16:00,0.596,0.840,0.531,1.027,0.733,0.339,0.594,0.554,���쓌,1.2,��
2022/08/27,16:10,0.596,0.840,0.530,1.028,0.732,0.339,0.594,0.554,-,CALM,��
2022/08/27,16:20,0.597,0.840,0.534,1.027,0.733,0.339,0.594,0.556,���쓌,0.9,��
2022/08/27,16:30,0.596,0.840,0.531,1.027,0.735,0.338,0.596,0.555,��쓌,1.1,��
2022/08/27,16:40,0.597,0.840,0.533,1.027,0.735,0.339,0.593,0.555,�쓌,0.9,��
2022/08/27,16:50,0.598,0.839,0.531,1.029,0.734,0.339,0.595,0.554,�쓌,0.9,��
2022/08/27,17:00,0.599,0.841,0.532,1.030,0.734,0.339,0.596,0.555,-,CALM,��
2022/08/27,17:10,0.596,0.840,0.533,1.026,0.734,0.339,0.595,0.554,�쓌,0.9,��
2022/08/27,17:20,0.597,0.842,0.532,1.029,0.736,0.337,0.595,0.555,-,CALM,��
2022/08/27,17:30,0.597,0.842,0.533,1.028,0.734,0.340,0.596,0.556,�쓌,0.8,��
2022/08/27,17:40,0.597,0.841,0.532,1.027,0.735,0.338,0.595,0.558,-,CALM,��
2022/08/27,17:50,0.597,0.842,0.534,1.027,0.734,0.340,0.595,0.556,��,0.9,��
2022/08/27,18:00,0.596,0.842,0.531,1.028,0.733,0.338,0.593,0.556,-,CALM,��
2022/08/27,18:10,0.598,0.844,0.531,1.030,0.734,0.339,0.595,0.556,�k,1.9,��
2022/08/27,18:20,0.597,0.844,0.532,1.031,0.736,0.339,0.596,0.557,�k,1.5,��
2022/08/27,18:30,0.596,0.843,0.533,1.029,0.735,0.340,0.596,0.555,�k�k��,1.9,��
2022/08/27,18:40,0.598,0.845,0.533,1.032,0.735,0.341,0.596,0.556,�k,1.1,��
2022/08/27,18:50,0.597,0.843,0.533,1.026,0.735,0.340,0.596,0.555,�k,1.7,��
2022/08/27,19:00,0.597,0.842,0.532,1.030,0.735,0.339,0.596,0.556,�k,1.2,��
2022/08/27,19:10,0.596,0.843,0.532,1.030,0.735,0.340,0.597,0.557,�k,1.7,��
2022/08/27,19:20,0.599,0.844,0.533,1.030,0.735,0.340,0.598,0.558,�k,1.7,��
2022/08/27,19:30,0.597,0.843,0.531,1.027,0.736,0.340,0.597,0.557,�k,1.2,��
2022/08/27,19:40,0.597,0.843,0.532,1.030,0.735,0.339,0.597,0.557,�k,1.9,��
2022/08/27,19:50,0.598,0.842,0.532,1.028,0.736,0.341,0.597,0.557,�k�k��,2.0,��
2022/08/27,20:00,0.596,0.843,0.533,1.029,0.736,0.340,0.597,0.556,�k,1.2,��
2022/08/27,20:10,0.598,0.842,0.533,1.028,0.737,0.338,0.596,0.557,�k�k��,1.5,��
2022/08/27,20:20,0.596,0.844,0.534,1.028,0.734,0.340,0.597,0.557,�k�k��,1.5,��
2022/08/27,20:30,0.597,0.844,0.533,1.029,0.734,0.341,0.596,0.558,�k,1.4,��
2022/08/27,20:40,0.597,0.843,0.533,1.030,0.734,0.341,0.597,0.557,�k�k��,1.7,��
2022/08/27,20:50,0.598,0.844,0.534,1.028,0.734,0.341,0.597,0.557,�k�k��,1.5,��
2022/08/27,21:00,0.597,0.843,0.533,1.029,0.735,0.339,0.596,0.558,�k�k��,1.4,��
2022/08/27,21:10,0.599,0.841,0.535,1.029,0.735,0.339,0.597,0.557,�k,2.0,��
2022/08/27,21:20,0.600,0.842,0.533,1.030,0.734,0.340,0.597,0.559,�k�k��,1.7,��
2022/08/27,21:30,0.597,0.843,0.533,1.029,0.735,0.341,0.598,0.558,�k,2.3,��
2022/08/27,21:40,0.598,0.842,0.534,1.029,0.734,0.340,0.595,0.556,�k�k��,2.6,��
2022/08/27,21:50,0.599,0.843,0.534,1.030,0.735,0.340,0.599,0.558,�k�k��,2.8,��
2022/08/27,22:00,0.596,0.842,0.534,1.029,0.736,0.341,0.599,0.557,�k,3.0,��
2022/08/27,22:10,0.597,0.843,0.532,1.028,0.736,0.340,0.598,0.558,�k,3.2,��
2022/08/27,22:20,0.597,0.842,0.534,1.031,0.737,0.341,0.597,0.557,�k,3.5,�L
2022/08/27,22:30,0.596,0.842,0.535,1.030,0.735,0.339,0.596,0.558,�k�k��,3.8,��
2022/08/27,22:40,0.598,0.843,0.533,1.030,0.735,0.339,0.597,0.557,�k�k��,4.9,��
2022/08/27,22:50,0.597,0.844,0.534,1.031,0.736,0.341,0.596,0.557,�k�k��,3.3,��
2022/08/27,23:00,0.598,0.841,0.533,1.029,0.736,0.339,0.599,0.557,�k�k��,4.6,��
2022/08/27,23:10,0.597,0.845,0.532,1.029,0.736,0.341,0.596,0.557,�k�k��,5.8,��
2022/08/27,23:20,0.596,0.844,0.532,1.030,0.734,0.340,0.598,0.557,�k,5.9,��
2022/08/27,23:30,0.598,0.844,0.533,1.028,0.737,0.340,0.597,0.558,�k,5.8,��
2022/08/27,23:40,0.598,0.845,0.530,1.028,0.735,0.340,0.597,0.557,�k,6.5,��
2022/08/27,23:50,0.598,0.844,0.534,1.030,0.733,0.341,0.596,0.558,�k�k��,6.7,��
